[[{"header":{"parameterUnit":"m.s-1","parameterCategory":1,"la1":30.2991,"la2":30.254,"lo1":-89.0895,"lo2":-89.0444,"dy":0.0017,"dx":0.0017,"nx":28,"ny":28,"refTime":"2023-10-06T03:00:00:Z","depth":0,"parameterNumber":2,"parameterNumberName":"U-component_of_WINDS"},"data":[0,0,0,0,0,0,0,0,0,0,0,0,0,0,0,0,0,0,0,0,0,0,0,0,0,0,0,0,0,0,0,0,0,0,0,0,0,0,0,0,0,0,0,0,0,0,0,0,0,0,0,0,0,0,0,0,0,0,-0.2082,-0.2083,0,-0.2124,-0.2124,-0.2125,-0.2092,-0.209,-0.2089,-0.2087,-0.2134,-0.2136,-0.2139,0,0,0,0,0,0,0,0,0,0,0,0,0,-0.1977,-0.1979,-0.2082,-0.2083,-0.2083,-0.2124,-0.2124,-0.2125,-0.2092,-0.209,-0.2088,-0.2087,-0.2133,-0.2136,-0.2139,0,0,0,0,0,0,0,0,0,0,0,0,0,-0.2021,-0.198,-0.2082,-0.2072,-0.2071,-0.2124,-0.2124,-0.2125,-0.2092,-0.209,-0.2088,-0.2086,-0.2132,-0.2135,-0.2139,-0.2206,0,0,-0.2151,-0.2153,0,0,0,0,0,0,0,0,-0.2019,-0.2025,-0.2073,-0.2072,-0.2072,-0.21,-0.2104,-0.2152,-0.2093,-0.2084,-0.2087,-0.2085,-0.2124,-0.2129,-0.2141,-0.2208,-0.221,-0.2151,-0.2154,-0.2155,-0.2156,0,0,0,0,0,0,0,-0.2016,-0.2023,-0.2099,-0.2073,-0.2073,-0.2066,-0.207,-0.2113,-0.2116,-0.2085,-0.2082,-0.2088,-0.2124,-0.2138,-0.2142,-0.221,-0.2151,-0.2155,-0.2157,-0.2158,-0.2334,-0.2337,0,0,0,0,0,0,-0.2013,-0.2021,-0.2097,-0.21,-0.2039,-0.2069,-0.2074,-0.2093,-0.2115,-0.2117,-0.2089,-0.2086,-0.2132,-0.2138,-0.2144,-0.2224,-0.2155,-0.2159,-0.2161,-0.2332,-0.2335,-0.2337,0,0,0,0,0,0,-0.2011,-0.2021,-0.2096,-0.206,-0.2069,-0.2073,-0.2096,-0.2095,-0.2109,-0.2119,-0.2119,-0.2103,-0.2131,-0.2138,-0.219,-0.2225,-0.2161,-0.2164,-0.2329,-0.2333,-0.2336,-0.2385,0,0,0,0,0,0,-0.2008,-0.202,-0.2045,-0.2061,-0.2071,-0.2141,-0.2098,-0.2098,-0.2115,-0.2111,-0.2132,-0.2133,-0.213,-0.2185,-0.2194,-0.2229,-0.2167,-0.2326,-0.2331,-0.2335,-0.2381,-0.239,-0.2398,0,0,0,0,0,-0.2005,-0.2057,-0.2046,-0.2056,-0.2102,-0.2143,-0.2149,-0.2143,-0.2118,-0.2144,-0.215,-0.2132,-0.2219,-0.219,-0.2201,-0.2238,-0.2324,-0.233,-0.2335,-0.2377,-0.2388,-0.2398,0,0,0,0,0,0,-0.2047,-0.2059,-0.2047,-0.2106,-0.2124,-0.2137,-0.217,-0.2155,-0.2182,-0.2177,-0.2169,-0.2174,-0.2229,-0.2238,-0.2206,-0.2303,-0.2268,-0.2275,-0.2296,-0.2307,-0.2316,-0.2314,-0.217,0,0,0,0,0,-0.2063,-0.2094,-0.2104,-0.2155,-0.2164,-0.2165,-0.2183,-0.2177,-0.2195,-0.2203,-0.2213,-0.2233,-0.2264,-0.2286,-0.2315,-0.238,-0.2386,-0.2411,-0.2419,-0.2427,-0.2435,-0.2471,-0.2483,-0.2355,-0.2355,-0.2355,0,0,-0.2097,-0.2107,-0.2128,-0.2164,-0.2177,-0.2211,-0.2172,-0.221,-0.2236,-0.2209,-0.226,-0.2267,-0.2288,-0.2348,-0.2374,-0.2357,-0.247,-0.2433,-0.2439,-0.2443,-0.2478,-0.249,-0.2501,-0.2359,-0.2358,-0.2357,0,0,-0.2177,-0.2187,-0.2231,-0.2245,-0.2264,-0.2264,-0.2275,-0.229,-0.2294,-0.2344,-0.2325,-0.2356,-0.241,-0.2427,-0.2442,-0.2526,-0.2512,-0.2536,-0.2583,-0.2619,-0.2629,-0.2638,-0.2671,-0.2682,-0.2543,-0.2543,-0.2543,0,-0.2217,-0.2267,-0.2256,-0.2296,-0.2313,-0.2288,-0.2334,-0.2348,-0.2376,-0.2389,-0.2368,-0.2436,-0.2449,-0.2512,-0.2533,-0.2545,-0.2559,-0.2536,-0.2628,-0.2637,-0.2646,-0.2676,-0.2688,-0.2546,-0.2546,-0.2546,-0.2545,0,-0.2316,-0.2351,-0.2385,-0.2412,-0.2433,-0.2475,-0.2472,-0.2494,-0.2485,-0.2488,-0.2539,-0.2552,-0.2585,-0.2599,-0.2591,-0.2662,-0.265,-0.2629,-0.2594,-0.2661,-0.269,-0.2702,-0.2551,-0.2549,-0.2549,-0.2548,0,0,-0.2427,-0.2447,-0.246,-0.2472,-0.2491,-0.2518,-0.2559,-0.259,-0.261,-0.263,-0.2666,-0.2711,-0.2692,-0.2709,-0.2703,-0.2734,-0.2802,-0.2709,-0.2709,-0.2728,-0.2883,-0.2901,-0.2915,-0.2791,-0.2793,-0.2795,-0.2882,0,-0.251,-0.2581,-0.2572,-0.2641,-0.2674,-0.265,-0.2686,-0.2703,-0.2706,-0.2735,-0.2738,-0.2772,-0.2742,-0.2752,-0.2782,-0.2788,-0.2834,-0.2781,-0.2827,-0.2829,-0.2826,-0.293,-0.2949,-0.3031,-0.2893,-0.2895,-0.2896,0,-0.2617,-0.264,-0.2712,-0.2726,-0.2739,-0.2772,-0.2799,-0.2826,-0.2844,-0.2844,-0.2863,-0.2851,-0.2894,-0.2855,-0.2914,-0.2878,-0.2896,-0.2902,-0.2905,-0.2912,-0.2869,-0.2942,-0.3057,-0.307,-0.2914,-0.2912,-0.2911,0,-0.2694,-0.2742,-0.2792,-0.2803,-0.2819,-0.2843,-0.2852,-0.2867,-0.2886,-0.291,-0.2922,-0.2951,-0.2968,-0.299,-0.2987,-0.2958,-0.3048,-0.3009,-0.3052,-0.3052,-0.3075,-0.3074,-0.3197,-0.3081,-0.3081,-0.308,-0.308,0,-0.2789,-0.2835,-0.2827,-0.2858,-0.2908,-0.2897,-0.2948,-0.2953,-0.2967,-0.2999,-0.298,-0.3011,-0.3002,-0.3033,-0.303,-0.3081,-0.3088,-0.3091,-0.309,-0.3095,-0.3095,-0.3109,-0.3104,-0.3084,-0.3083,-0.3082,-0.3082,0,-0.2885,-0.2881,-0.2934,-0.2945,-0.2949,-0.2986,-0.2996,-0.3025,-0.3025,-0.3067,-0.3076,-0.3077,-0.3112,-0.311,-0.315,-0.3148,-0.3212,-0.3203,-0.3206,-0.3205,-0.3249,-0.3246,-0.3388,-0.3407,-0.3276,-0.3277,-0.3278,0,-0.2948,-0.2982,-0.2997,-0.3016,-0.3026,-0.3058,-0.3077,-0.3067,-0.3087,-0.311,-0.3137,-0.317,-0.3197,-0.3254,-0.326,-0.329,-0.3284,-0.3331,-0.3289,-0.3292,-0.3288,-0.3287,-0.3292,-0.3341,-0.3342,-0.3344,-0.3344,0,-0.3061,-0.3057,-0.3084,-0.3111,-0.3134,-0.3155,-0.3174,-0.3191,-0.3183,-0.3207,-0.3242,-0.3263,-0.3303,-0.3337,-0.3366,-0.3375,-0.336,-0.3357,-0.3369,-0.3376,-0.3378,-0.338,-0.3232,-0.3355,-0.3354,-0.3353,-0.3353,-0.3352,-0.3144,-0.3174,-0.3189,-0.322,-0.3233,-0.3251,-0.3279,-0.3282,-0.3311,-0.3343,-0.3335,-0.3375,-0.3392,-0.3429,-0.3441,-0.3473,-0.3456,-0.3473,-0.3478,-0.3483,-0.349,-0.3369,-0.3478,-0.3478,-0.3477,-0.3477,-0.3477,0,-0.3259,-0.3266,-0.3295,-0.3322,-0.3346,-0.3326,-0.3346,-0.3369,-0.3404,-0.342,-0.3446,-0.3487,-0.3519,-0.3526,-0.3558,-0.3582,-0.3576,-0.3591,-0.3591,-0.3594,-0.3502,-0.3489,-0.3596,-0.3596,-0.3596,-0.3596,-0.3596,-0.3596,-0.3321,-0.3372,-0.3369,-0.3426,-0.3433,-0.3472,-0.3485,-0.3502,-0.3515,-0.3561,-0.3587,-0.3591,-0.3604,-0.3635,-0.3665,-0.3666,-0.368,-0.3699,-0.3697,-0.3612,-0.36,-0.3589,-0.3578,-0.3701,-0.3701,-0.3787,-0.3788,-0.3789]},{"header":{"parameterUnit":"m.s-1","parameterCategory":1,"la1":30.2991,"la2":30.254,"lo1":-89.0895,"lo2":-89.0444,"dy":0.0017,"dx":0.0017,"nx":28,"ny":28,"refTime":"2023-10-06T03:00:00:Z","depth":0,"parameterNumber":3,"parameterNumberName":"V-component_of_WINDS"},"data":[0,0,0,0,0,0,0,0,0,0,0,0,0,0,0,0,0,0,0,0,0,0,0,0,0,0,0,0,0,0,0,0,0,0,0,0,0,0,0,0,0,0,0,0,0,0,0,0,0,0,0,0,0,0,0,0,0,0,-6.6634,-6.6635,0,-6.6706,-6.6707,-6.6708,-6.6606,-6.6602,-6.6598,-6.6595,-6.6664,-6.6669,-6.6674,0,0,0,0,0,0,0,0,0,0,0,0,0,-6.6404,-6.6409,-6.6634,-6.6635,-6.6636,-6.6706,-6.6707,-6.6708,-6.6606,-6.6602,-6.6597,-6.6593,-6.6662,-6.6668,-6.6674,0,0,0,0,0,0,0,0,0,0,0,0,0,-6.6493,-6.641,-6.6634,-6.6594,-6.6591,-6.6706,-6.6707,-6.6708,-6.6607,-6.6602,-6.6596,-6.6591,-6.666,-6.6668,-6.6675,-6.6832,0,0,-6.6699,-6.6702,0,0,0,0,0,0,0,0,-6.6488,-6.6501,-6.6599,-6.6597,-6.6594,-6.6642,-6.6651,-6.675,-6.6609,-6.6601,-6.6595,-6.6589,-6.666,-6.6668,-6.6693,-6.6835,-6.6838,-6.67,-6.6705,-6.6708,-6.671,0,0,0,0,0,0,0,-6.6482,-6.6498,-6.6663,-6.66,-6.6597,-6.6571,-6.6577,-6.6669,-6.666,-6.6601,-6.6594,-6.6604,-6.6658,-6.6686,-6.6694,-6.6839,-6.67,-6.6707,-6.6711,-6.6714,-6.7113,-6.7119,0,0,0,0,0,0,-6.6481,-6.6493,-6.666,-6.6665,-6.6527,-6.6579,-6.6587,-6.6632,-6.6659,-6.6658,-6.6609,-6.6599,-6.6675,-6.6685,-6.6696,-6.6882,-6.6708,-6.6715,-6.672,-6.7108,-6.7115,-6.7121,0,0,0,0,0,0,-6.6477,-6.6497,-6.6657,-6.6577,-6.6596,-6.6589,-6.664,-6.6636,-6.6664,-6.6665,-6.6662,-6.6639,-6.6671,-6.6685,-6.6799,-6.6883,-6.6719,-6.6726,-6.7101,-6.711,-6.7118,-6.7255,0,0,0,0,0,0,-6.647,-6.6496,-6.6557,-6.6579,-6.66,-6.6762,-6.6645,-6.6641,-6.6678,-6.6666,-6.6692,-6.6692,-6.6668,-6.6788,-6.6807,-6.6891,-6.6732,-6.7093,-6.7105,-6.7115,-6.7243,-6.7267,-6.7288,0,0,0,0,0,-6.6463,-6.6591,-6.656,-6.6581,-6.6676,-6.6767,-6.6778,-6.675,-6.6685,-6.6745,-6.6746,-6.6691,-6.6871,-6.6801,-6.6821,-6.6908,-6.7088,-6.7101,-6.7114,-6.7233,-6.7263,-6.7288,0,0,0,0,0,0,-6.6576,-6.6593,-6.6559,-6.6699,-6.6733,-6.6749,-6.6824,-6.6782,-6.6833,-6.682,-6.6781,-6.6788,-6.6911,-6.692,-6.6843,-6.7061,-6.6968,-6.6986,-6.7051,-6.708,-6.7102,-6.7097,-6.6738,0,0,0,0,0,-6.6618,-6.6692,-6.6701,-6.6824,-6.6842,-6.6831,-6.6869,-6.6845,-6.6877,-6.689,-6.6899,-6.6931,-6.6994,-6.7037,-6.7096,-6.7243,-6.7248,-6.7313,-6.7336,-6.7355,-6.7371,-6.7451,-6.748,-6.7165,-6.7165,-6.7165,0,0,-6.6704,-6.6722,-6.6771,-6.6847,-6.687,-6.6946,-6.6843,-6.6928,-6.6984,-6.6902,-6.7012,-6.7019,-6.7052,-6.7185,-6.7243,-6.7196,-6.7459,-6.7372,-6.7386,-6.7393,-6.7467,-6.7497,-6.7524,-6.7174,-6.7172,-6.7171,0,0,-6.69,-6.6921,-6.7026,-6.7052,-6.7089,-6.708,-6.7106,-6.7129,-6.7132,-6.7241,-6.7182,-6.7247,-6.7357,-6.7384,-6.7412,-6.7619,-6.7571,-6.7639,-6.7758,-6.7836,-6.7861,-6.7883,-6.7958,-6.7986,-6.7655,-6.7655,-6.7656,0,-6.7002,-6.7116,-6.7085,-6.7175,-6.721,-6.7142,-6.7248,-6.7273,-6.7327,-6.7352,-6.7299,-6.7437,-6.7454,-6.7592,-6.7643,-6.7668,-6.7695,-6.7636,-6.786,-6.7882,-6.7902,-6.7973,-6.8001,-6.7664,-6.7663,-6.7662,-6.7661,0,-6.724,-6.732,-6.74,-6.7457,-6.75,-6.7598,-6.758,-6.7628,-6.76,-6.7597,-6.7709,-6.7728,-6.7789,-6.782,-6.7792,-6.7955,-6.7925,-6.7867,-6.7772,-6.7941,-6.8007,-6.8034,-6.7675,-6.7672,-6.767,-6.7668,0,0,-6.7511,-6.7549,-6.7579,-6.7604,-6.764,-6.7701,-6.7794,-6.7857,-6.7899,-6.7938,-6.8015,-6.8111,-6.8058,-6.809,-6.8064,-6.8133,-6.8298,-6.8067,-6.8067,-6.811,-6.8479,-6.8523,-6.8555,-6.8265,-6.827,-6.8274,-6.8476,0,-6.7708,-6.7872,-6.7847,-6.8005,-6.8079,-6.8015,-6.8097,-6.8127,-6.8127,-6.8188,-6.8186,-6.8255,-6.8179,-6.8199,-6.8263,-6.8264,-6.8371,-6.8249,-6.8337,-6.834,-6.8332,-6.859,-6.8637,-6.8827,-6.8502,-6.8506,-6.8509,0,-6.796,-6.8011,-6.8178,-6.8203,-6.8233,-6.8307,-6.8363,-6.8422,-6.8455,-6.845,-6.8486,-6.8449,-6.8541,-6.8445,-6.8571,-6.8489,-6.8523,-6.8529,-6.8535,-6.8543,-6.8436,-6.8606,-6.8887,-6.8916,-6.855,-6.8546,-6.8544,0,-6.8143,-6.8252,-6.8366,-6.839,-6.8422,-6.8476,-6.8491,-6.8519,-6.8558,-6.8606,-6.8631,-6.8688,-6.872,-6.8765,-6.8743,-6.8675,-6.8874,-6.8775,-6.8872,-6.8873,-6.8918,-6.8916,-6.921,-6.8938,-6.8938,-6.8937,-6.8937,0,-6.8366,-6.8471,-6.8449,-6.852,-6.8635,-6.8604,-6.8718,-6.8726,-6.8751,-6.8821,-6.8768,-6.8834,-6.8801,-6.8864,-6.8848,-6.8956,-6.897,-6.8968,-6.8963,-6.8974,-6.8975,-6.8997,-6.8983,-6.8945,-6.8943,-6.8942,-6.894,0,-6.859,-6.858,-6.87,-6.8722,-6.8729,-6.8814,-6.8831,-6.8896,-6.8892,-6.8981,-6.9,-6.8993,-6.9065,-6.9048,-6.9125,-6.9114,-6.9251,-6.9228,-6.9241,-6.9236,-6.9335,-6.9327,-6.9654,-6.9696,-6.9396,-6.9399,-6.9402,0,-6.8734,-6.8814,-6.8845,-6.8889,-6.8909,-6.898,-6.9021,-6.8993,-6.9038,-6.9082,-6.9142,-6.921,-6.9263,-6.9381,-6.9382,-6.9441,-6.942,-6.9531,-6.9429,-6.9438,-6.9424,-6.942,-6.9428,-6.9552,-6.9555,-6.9558,-6.956,0,-6.8992,-6.8983,-6.9045,-6.9106,-6.9157,-6.9202,-6.9243,-6.9281,-6.9257,-6.9309,-6.9383,-6.9425,-6.9506,-6.9574,-6.9629,-6.9643,-6.9599,-6.9592,-6.9618,-6.9631,-6.9636,-6.9637,-6.9299,-6.9585,-6.9583,-6.9581,-6.9579,-6.9578,-6.9181,-6.925,-6.9283,-6.9354,-6.9382,-6.9421,-6.9484,-6.9489,-6.9551,-6.9616,-6.9595,-6.9681,-6.9711,-6.9781,-6.9802,-6.9867,-6.9825,-6.9862,-6.9872,-6.9882,-6.9895,-6.9625,-6.9876,-6.9876,-6.9875,-6.9874,-6.9874,0,-6.9438,-6.9456,-6.9522,-6.9582,-6.9637,-6.9591,-6.9634,-6.9683,-6.976,-6.9793,-6.9847,-6.9933,-6.9999,-7.0005,-7.0067,-7.0118,-7.0099,-7.0136,-7.0132,-7.0136,-6.9928,-6.99,-7.015,-7.015,-7.015,-7.015,-7.015,-7.015,-6.9578,-6.9692,-6.9687,-6.9814,-6.9831,-6.9916,-6.9944,-6.998,-7.0007,-7.0106,-7.0161,-7.0166,-7.0188,-7.0251,-7.031,-7.031,-7.0335,-7.038,-7.0373,-7.0178,-7.0151,-7.0125,-7.0099,-7.0386,-7.0386,-7.0576,-7.0578,-7.0579]}]]